Content
SEND FEEDBACK

Daily
Averages
Monthly
Summary
South Korea

MASAN, SOUTH KOREA


Home > Asia > South Korea
Elevation: 20 feet     Latitude: 35 11N     Longitude: 128 34E

WEATHER
 
SELECT A DAY
Number of Records: 173,240;   Date Range: 7/1/96 - 8/10/14
 
SHARE

PRINT THIS DATA

[ ← Previous Day ]
WEATHER ALMANAC - JANUARY 31, 2013
[ Next Day → ]
[ °C ]   °F
Weather ElementAverageHighLow
Temperature44 °F55.4 °F (2:00 pm)33.8 °F (2:00 am)
Dewpoint35.8 °F41 °F (4:00 pm)28.4 °F (3:00 am)
Humidity74 %93 % (5:00 am)54 % (1:00 pm)
Barometer30.43 in30.48 in (8:00 am)30.36 in (11:00 pm)
Wind Speed4.9 mph9.2 mph (5:00 pm)
Weather ElementAverage
Visibility5.1 mi
Wind DirectionESE (121.7 °)

Weather ElementTotal
Precipitation---
Heating Degree Days20.4 (Base 65)
Averaged from 23 records on January 31, 2013
WEATHER CONDITIONS BREAKOUT
WIND DIRECTION BREAKOUT
WEATHER BY HOUR - JANUARY 31, 2013
[ °C ]   °F
Local TimeTemperatureDewpointHumidityBarometerVisibilityWind DirectionWind SpeedGust SpeedPrecipitationEventsConditions
1:00 AM37.4 °F32.0 °F81 %30.46 in3.7 miNNE (20°)4.6 mphMostly Cloudy
2:00 AM33.8 °F30.2 °F87 %30.45 inNNE (20°)5.8 mphMostly Cloudy
3:00 AM33.8 °F28.4 °F81 %30.45 inNE (40°)4.6 mphMostly Cloudy
4:00 AM35.6 °F30.2 °F81 %30.45 inNE (50°)2.3 mphMostly Cloudy
5:00 AM33.8 °F32.0 °F93 %30.45 inNorth (10°)4.6 mphMostly Cloudy
6:00 AM35.6 °F32.0 °F87 %30.45 inNorth (350°)6.9 mphMist
7:00 AM35.6 °F32.0 °F87 %30.45 inNNE (20°)2.3 mphMist
8:00 AM35.6 °F32.0 °F87 %30.48 inNNE (30°)4.6 mphMist
9:00 AM37.4 °F33.8 °F87 %30.48 inNE (40°)4.6 mphMist
10:00 AM41.0 °F35.6 °F81 %30.48 inNE (40°)3.5 mphMostly Cloudy
11:00 AM44.6 °F35.6 °F71 %30.48 inNNW (330°)2.3 mphMostly Cloudy
12:00 PM50.0 °F37.4 °F62 %30.45 inNW (320°)3.5 mphHaze
1:00 PM53.6 °F37.4 °F54 %30.45 in3.7 miSE (130°)3.5 mphMostly Cloudy
2:00 PM55.4 °F39.2 °F54 %30.42 in5.6 miSE (130°)8.1 mphMostly Cloudy
3:00 PM55.4 °F39.2 °F54 %30.42 in6.2 miSE (130°)8.1 mphMostly Cloudy
4:00 PM53.6 °F41.0 °F62 %30.39 inESE (120°)8.1 mphClear
5:00 PM53.6 °F39.2 °F58 %30.39 inESE (120°)9.2 mphClear
6:00 PM50.0 °F39.2 °F66 %30.39 inSE (130°)6.9 mphClear
7:00 PM50.0 °F41.0 °F71 %30.39 inEast (100°)5.8 mphClear
8:00 PM48.2 °F39.2 °F71 %30.42 inSSE (150°)4.6 mphClear
9:00 PM46.4 °F37.4 °F71 %30.42 inNNE (20°)3.5 mphClear
10:00 PM46.4 °F39.2 °F76 %30.39 inWSW (250°)3.5 mphClear
11:00 PM44.6 °F39.2 °F81 %30.36 in6.2 miWSW (250°)2.3 mphOvercast
Hourly data recorded from RKPK, located miles away from Masan, South Korea







STORIES FROM OUR PARTNERS